This is the latest recevied weather packets stored in our database for station/object SR9NLI. If no packets are shown the sender has not sent any weather packets the latest 1 day(s).
| Time | Temp. | Humidity | Pressure | Rain* | Wind** | Luminosity | Snow |
|---|---|---|---|---|---|---|---|
| 1777972480 | 23.33° C | 100% | 951.8 hPa | - | 1.34 m/s, 187° | - | - |
| 1777972357 | 22.78° C | 100% | 951.9 hPa | - | 1.79 m/s, 204° | - | - |
| 1777972296 | 22.78° C | 100% | 951.8 hPa | - | 1.79 m/s, 215° | - | - |
| 1777972234 | 22.78° C | 100% | 951.7 hPa | - | 1.79 m/s, 198° | - | - |
| 1777972110 | 22.78° C | 100% | 951.9 hPa | - | 1.79 m/s, 196° | - | - |
| 1777971987 | 22.78° C | 100% | 951.8 hPa | - | 1.34 m/s, 214° | - | - |
| 1777971927 | 22.78° C | 100% | 951.7 hPa | - | 1.34 m/s, 208° | - | - |
| 1777971864 | 22.78° C | 100% | 951.8 hPa | - | 1.34 m/s, 203° | - | - |
| 1777971741 | 22.78° C | 100% | 951.9 hPa | - | 1.79 m/s, 178° | - | - |
| 1777971619 | 22.22° C | 100% | 951.8 hPa | - | 2.68 m/s, 168° | - | - |
| 1777971559 | 22.22° C | 100% | 951.9 hPa | - | 2.68 m/s, 170° | - | - |
| 1777971496 | 22.22° C | 100% | 951.8 hPa | - | 2.24 m/s, 177° | - | - |
| 1777971372 | 22.78° C | 100% | 952 hPa | - | 2.24 m/s, 178° | - | - |
| 1777971249 | 22.22° C | 100% | 952 hPa | - | 3.58 m/s, 164° | - | - |
| 1777971189 | 22.22° C | 100% | 951.9 hPa | - | 3.58 m/s, 165° | - | - |
| 1777971127 | 22.78° C | 100% | 951.9 hPa | - | 2.24 m/s, 165° | - | - |
| 1777971003 | 22.78° C | 100% | 952 hPa | - | 2.24 m/s, 173° | - | - |
| 1777970881 | 22.22° C | 100% | 952.1 hPa | - | 2.68 m/s, 175° | - | - |
| 1777970820 | 22.22° C | 100% | 952 hPa | - | 4.02 m/s, 170° | - | - |
| 1777970758 | 22.22° C | 100% | 952 hPa | - | 4.02 m/s, 166° | - | - |
| 1777970635 | 21.67° C | 100% | 952 hPa | - | 3.58 m/s, 164° | - | - |
| 1777970516 | 22.22° C | 100% | 952 hPa | - | 2.68 m/s, 167° | - | - |
| 1777970451 | 22.22° C | 100% | 952 hPa | - | 2.68 m/s, 170° | - | - |
| 1777970388 | 22.22° C | 100% | 952 hPa | - | 3.13 m/s, 171° | - | - |
| 1777970265 | 22.22° C | 100% | 952 hPa | - | 4.02 m/s, 172° | - | - |
* Rain since midnight (hover to see other rain measurements)
** Current wind speed in m/s (hover to see current wind gust speed)